Weather History for Hyannis, MA

Change the Weather History Date:

Thursday, April 10, 2014

  Actual Average Record
Temperature  
Mean Temperature 39 °F -  
Max Temperature 51 °F 49 °F 68 °F (1955)
Min Temperature 28 °F 35 °F 22 °F (1963)
Degree Days  
Heating Degree Days 26    
Moisture  
Dew Point 29 °F    
Average Humidity 59    
Maximum Humidity 85    
Minimum Humidity 33    
Precipitation  
Precipitation 0.00 in - - ()
Sea Level Pressure  
Sea Level Pressure 30.11 in    
Wind  
Wind Speed 10 mph (SW)    
Max Wind Speed 20 mph    
Max Gust Speed 32 mph    
Visibility 10 miles    
Events      
Averages and records for this station are not official NWS values.
T = Trace of Precipitation, MM = Missing Value Source: NWS Daily Summary

Daily Weather History Graph

Daily Weather History Graph

Search for Another Location

Airport:

Trip Planner

Search our weather history database for the weather conditions in past years. The results will help you decide how hot, cold, wet, or windy it might be!

Date:

Astronomy

Apr. 10, 2014 Rise Set
Actual Time 6:09 AM EDT 7:16 PM EDT
Civil Twilight 5:40 AM EDT 7:44 PM EDT
Nautical Twilight 5:06 AM EDT 8:19 PM EDT
Astronomical Twilight 4:31 AM EDT 8:54 PM EDT
Moon 2:53 PM EDT (4/10) 3:33 AM EDT (4/10)
Length of Visible Light 14h 04m
Length of Day
13h 07m
Waxing Gibbous, 79% of the Moon is Illuminated
Apr 10
Waxing Gibbous
Apr 15
Full
Apr 22
Last Quarter
Apr 29
New
May 6
First Quarter

Hourly Weather History & Observations

Time (EDT) Temp. Windchill Dew Point Humidity Pressure Visibility Wind Dir Wind Speed Gust Speed Precip Events Conditions
12:56 AM 42.1 °F 35.2 °F 19.0 °F 40% 29.97 in 10.0 mi NNW 12.7 mph 20.7 mph N/A   Clear
1:56 AM 41.0 °F 34.7 °F 19.0 °F 41% 29.99 in 10.0 mi NNW 10.4 mph - N/A   Clear
2:56 AM 39.0 °F 35.7 °F 21.0 °F 49% 30.01 in 10.0 mi North 4.6 mph - N/A   Clear
3:56 AM 32.0 °F - 24.1 °F 73% 30.04 in 10.0 mi Calm Calm - N/A   Clear
4:56 AM 28.9 °F - 23.0 °F 78% 30.07 in 10.0 mi Calm Calm - N/A   Clear
5:56 AM 28.0 °F - 23.0 °F 81% 30.11 in 10.0 mi Calm Calm - N/A   Clear
6:56 AM 30.0 °F - 26.1 °F 85% 30.14 in 10.0 mi Calm Calm - N/A   Clear
8:56 AM 45.0 °F 40.6 °F 26.1 °F 48% 30.18 in 10.0 mi SSW 8.1 mph - N/A   Clear
9:56 AM 46.9 °F - 28.0 °F 48% 30.18 in 10.0 mi SSW 12.7 mph 17.3 mph N/A   Clear
10:56 AM 46.9 °F - 28.0 °F 48% 30.19 in 10.0 mi SSW 12.7 mph 20.7 mph N/A   Clear
11:56 AM 50.0 °F - 27.0 °F 41% 30.18 in 10.0 mi SW 15.0 mph 23.0 mph N/A   Clear
12:56 PM 48.9 °F - 25.0 °F 39% 30.19 in 10.0 mi SSW 18.4 mph 26.5 mph N/A   Clear
1:56 PM 50.0 °F - 21.9 °F 33% 30.19 in 10.0 mi SSW 18.4 mph 29.9 mph N/A   Clear
2:56 PM 48.9 °F - 21.9 °F 35% 30.18 in 10.0 mi SSW 19.6 mph 28.8 mph N/A   Clear
3:56 PM 48.9 °F - 30.9 °F 50% 30.15 in 10.0 mi SSW 19.6 mph 32.2 mph N/A   Clear
4:56 PM 48.0 °F - 36.0 °F 63% 30.13 in 10.0 mi SSW 13.8 mph 25.3 mph N/A   Clear
5:56 PM 46.0 °F 39.3 °F 35.1 °F 66% 30.12 in 10.0 mi SSW 16.1 mph 25.3 mph N/A   Clear
6:56 PM 46.0 °F 39.0 °F 32.0 °F 58% 30.11 in 10.0 mi SSW 17.3 mph 26.5 mph N/A   Clear
7:56 PM 45.0 °F 38.5 °F 34.0 °F 65% 30.12 in 10.0 mi SSW 13.8 mph 23.0 mph N/A   Clear
8:56 PM 45.0 °F 38.9 °F 37.0 °F 74% 30.12 in 10.0 mi SSW 12.7 mph - N/A   Clear
9:56 PM 46.0 °F 39.9 °F 39.0 °F 76% 30.11 in 10.0 mi SSW 13.8 mph 23.0 mph N/A   Clear
10:56 PM 46.0 °F 39.9 °F 39.9 °F 79% 30.10 in 10.0 mi SSW 13.8 mph 20.7 mph N/A   Clear
11:56 PM 46.9 °F - 41.0 °F 80% 30.06 in 10.0 mi SSW 16.1 mph 29.9 mph N/A   Clear